Theta_e
317 316 316 316 316 316 316 317 317 317 317 317 318 318 319 320 323 326 328 331 334 334 333 344 353 353 356 356 358 359 348 349 350 349 354 350 348 347 347 345 343 342 342 340 342
318 317 317 316 316 316 316 316 317 317 317 317 318 318 318 319 322 324 328 331 331 331 346 348 344 349 351 351 354 351 347 349 347 348 351 349 349 350 346 345 347 345 341 342 343
319 319 318 317 317 316 316 316 316 317 317 317 318 318 319 319 323 328 328 329 330 329 342 339 337 344 344 348 350 347 348 348 348 347 349 349 350 349 347 350 346 345 344 344 344
319 319 319 319 318 317 316 316 316 317 317 317 318 318 319 319 331 326 327 330 330 329 335 332 339 339 344 347 346 349 348 347 349 349 350 350 350 350 348 352 347 344 344 344 344
318 319 319 320 319 318 317 317 316 316 317 317 318 318 319 322 323 327 323 330 329 329 332 332 336 339 344 346 347 348 349 347 348 349 349 349 351 350 351 348 348 344 343 344 344
314 316 318 320 320 319 318 317 316 316 316 317 317 318 320 323 320 320 324 330 333 336 332 332 336 335 342 346 348 347 348 348 348 349 350 351 352 351 351 345 345 344 343 343 342
311 313 315 318 320 320 319 318 317 316 316 316 317 317 320 322 320 323 326 327 331 334 333 334 333 335 343 347 347 347 349 349 350 350 352 351 354 353 350 344 345 344 342 342 342
310 311 313 316 319 320 320 317 317 317 316 316 316 316 322 320 320 320 323 324 327 331 331 331 330 339 344 345 346 348 349 351 349 349 351 351 354 353 349 344 343 342 342 343 343
312 312 312 315 319 321 319 320 322 322 321 318 317 319 323 319 320 322 321 324 325 325 326 326 331 340 343 348 349 347 349 344 345 346 348 351 351 353 350 344 343 343 342 343 344
313 314 313 314 319 321 318 321 323 322 322 320 317 321 321 322 322 323 322 322 324 325 326 327 334 339 342 345 349 348 343 339 340 340 346 349 352 353 351 348 344 344 344 344 344
316 316 314 314 320 320 321 321 324 324 324 325 323 321 320 322 321 324 323 322 323 326 330 331 337 340 341 342 341 340 340 340 338 339 344 346 347 348 352 350 348 346 346 346 346
318 318 315 315 321 321 321 324 322 322 325 323 322 322 322 322 322 323 323 323 325 328 330 331 337 338 338 339 339 339 340 340 338 341 344 343 344 346 350 352 350 348 348 348 347
319 319 316 317 321 322 323 323 322 321 326 324 322 323 323 322 323 324 323 323 325 327 328 333 337 335 336 338 339 340 340 340 339 337 342 345 340 350 348 351 351 350 349 349 349
318 318 315 320 321 322 324 323 323 321 328 325 325 324 323 323 323 323 323 323 324 325 327 329 331 331 333 336 338 340 339 336 336 337 341 340 341 340 351 352 353 351 350 349 349
318 316 315 319 321 324 323 323 321 321 327 326 325 322 322 324 323 323 323 324 325 325 325 327 326 327 330 334 336 338 335 334 334 337 339 340 342 340 347 349 351 352 351 350 349
320 317 317 320 321 322 322 322 321 327 329 327 325 324 325 323 324 323 323 323 324 324 325 326 325 327 328 329 331 333 332 334 336 338 341 340 340 340 341 341 344 345 348 350 349
322 319 320 321 323 322 321 322 329 329 327 327 326 325 326 325 324 325 324 325 325 324 325 325 325 325 325 326 329 329 332 336 337 339 341 340 341 340 339 338 338 342 342 347 349
322 321 322 323 323 320 322 327 329 327 328 326 326 326 326 327 327 324 325 325 324 324 325 325 325 325 326 325 326 328 329 330 335 338 339 341 341 339 338 337 337 342 343 344 346
324 323 324 324 323 321 322 327 329 329 328 327 326 327 327 327 328 329 329 329 330 327 324 325 325 325 324 326 326 326 326 328 329 332 336 338 337 336 337 337 336 340 341 345 345
326 326 326 325 325 324 328 327 330 328 327 328 328 328 328 327 328 329 330 330 332 332 329 325 325 325 326 324 325 326 328 327 328 331 335 336 337 337 337 336 336 335 340 346 346
327 327 326 326 327 329 330 331 331 329 328 329 327 327 328 328 328 330 329 331 331 331 329 328 328 327 325 325 325 325 325 326 327 329 332 336 337 336 335 336 336 335 339 344 347
328 329 326 327 329 330 331 330 326 330 328 327 327 328 329 329 329 330 331 331 329 330 331 330 329 331 329 327 325 326 326 327 327 327 329 330 331 332 332 333 333 335 337 340 347
330 328 326 327 330 329 329 329 329 331 331 331 331 331 331 330 330 329 329 329 329 330 332 331 330 331 331 327 325 325 326 326 326 327 327 328 329 331 332 332 332 335 339 343 347
329 331 326 326 325 328 329 329 330 328 328 330 331 331 331 331 331 331 330 330 329 329 327 328 329 329 330 334 333 333 332 329 326 326 326 326 327 329 330 331 334 341 339 342 348
318 321 317 326 327 326 326 326 328 329 327 327 330 329 330 330 330 331 330 329 328 327 329 330 331 332 331 331 331 332 332 331 328 327 327 327 327 328 330 340 343 344 344 339 344
317 318 316 317 320 323 319 326 325 325 325 328 327 325 326 329 329 327 327 326 327 329 329 330 331 331 333 331 330 332 332 332 330 326 327 327 328 329 332 340 343 345 347 344 342
311 311 317 314 319 320 323 323 322 321 323 322 322 321 323 323 322 322 322 321 321 321 322 327 331 331 332 330 331 332 331 332 332 329 329 327 331 342 342 345 346 347 346 344 344
Wind_Speed
9 9 10 10 10 10 11 10 10 10 10 8 8 8 8 8 7 5 3 3 3 4 1 6 4 3 5 3 3 5 3 8 7 6 9 11 8 8 4 11 5 9 11 29 27
10 10 10 11 11 11 11 11 11 10 10 10 9 8 8 8 6 3 5 5 4 4 7 5 1 5 4 2 2 4 8 10 6 7 10 11 9 9 9 11 9 7 21 28 28
11 11 11 11 11 11 12 12 12 11 10 10 9 8 7 6 3 4 4 5 5 5 5 4 2 4 4 3 3 2 8 4 5 4 11 12 9 8 11 8 12 15 25 30 29
11 11 11 11 11 12 12 12 13 12 11 11 9 9 7 3 5 7 3 8 9 7 5 4 2 4 2 3 4 5 4 5 5 6 8 8 9 8 7 4 7 16 27 30 28
12 12 11 11 11 11 12 12 13 12 11 10 9 8 6 5 2 7 1 8 13 10 7 6 7 3 0 4 5 2 4 5 7 8 7 6 4 3 3 3 11 20 29 26 23
12 12 11 11 11 11 11 12 13 13 11 10 9 7 5 8 5 6 5 7 10 11 6 7 5 5 3 1 4 3 4 7 5 7 7 5 4 4 5 8 17 24 27 23 22
13 12 11 11 10 10 11 11 12 12 12 11 9 7 7 8 4 6 6 6 9 9 6 6 4 5 2 6 6 7 5 4 4 5 3 4 7 5 11 11 19 23 23 21 20
13 13 12 10 9 9 9 10 10 11 10 9 8 5 6 8 7 9 8 7 9 9 7 6 5 3 5 6 8 5 4 4 5 5 3 7 5 10 15 15 18 22 22 21 21
14 13 11 10 8 6 8 8 6 6 6 6 4 3 5 4 4 7 11 8 9 9 7 5 4 5 6 10 9 5 2 3 2 7 3 9 3 10 17 17 19 20 21 22 21
14 13 11 8 6 4 6 5 4 5 4 3 6 5 7 4 3 6 8 12 8 9 9 9 10 11 8 9 3 4 1 2 4 4 8 9 9 11 17 18 20 21 21 22 22
15 12 10 7 3 2 4 3 3 2 3 5 2 7 0 4 4 5 6 9 11 13 15 14 11 14 13 10 5 4 7 7 7 4 6 8 10 8 18 20 20 22 22 23 22
15 11 8 4 1 2 6 3 4 2 5 4 8 11 12 8 5 8 8 13 15 16 15 9 17 17 6 5 10 11 11 10 8 2 4 10 11 9 15 22 24 24 24 23 22
13 9 5 2 3 4 5 3 6 5 5 2 1 2 1 5 6 6 9 12 12 17 14 19 17 8 7 12 14 15 13 10 11 9 10 10 11 7 10 17 22 24 25 25 24
12 7 4 3 4 4 1 4 8 3 5 4 3 2 1 2 6 6 5 7 8 13 13 13 7 7 13 16 14 18 9 7 8 10 10 5 10 8 10 14 17 23 26 27 26
11 7 3 3 4 2 3 5 7 3 4 4 4 3 2 4 2 4 6 6 10 9 8 7 9 13 15 15 12 16 1 7 9 12 13 13 8 2 9 8 13 21 27 29 30
11 8 5 5 4 2 4 6 2 6 4 2 2 2 4 4 4 4 8 4 2 4 6 1 2 5 8 7 12 11 7 10 12 12 14 17 8 12 2 2 5 4 20 26 32
11 10 7 6 2 3 3 1 6 3 3 4 4 3 3 4 5 1 10 12 9 10 12 13 13 11 10 11 8 11 16 15 16 14 13 16 7 13 13 12 8 3 9 22 29
10 9 8 6 4 4 1 6 4 3 6 1 1 2 4 4 5 6 7 8 4 8 10 8 12 16 14 17 14 13 17 15 21 16 15 6 9 14 11 11 13 4 4 9 22
8 8 9 8 7 4 6 1 5 5 4 4 2 4 8 6 3 7 8 6 5 4 8 5 11 2 6 11 12 18 12 18 22 22 11 14 9 7 16 16 13 2 5 9 18
3 2 7 9 5 1 3 6 4 5 5 3 2 4 4 5 4 3 3 7 4 5 6 3 11 11 10 6 10 14 8 10 12 19 22 17 17 10 11 8 8 4 5 8 14
2 1 8 8 7 2 4 5 4 6 4 4 4 3 5 5 5 2 3 7 8 8 4 7 5 2 4 12 14 10 13 13 15 12 15 16 15 14 9 13 10 6 2 6 14
2 1 8 5 2 2 4 3 1 5 3 2 2 6 5 6 4 2 4 7 9 8 6 5 7 9 13 5 5 11 15 18 12 16 11 15 15 7 7 8 10 6 5 7 14
2 3 7 4 1 4 4 4 3 4 6 2 3 5 3 4 3 1 1 4 8 8 8 7 5 8 11 8 8 9 13 14 17 17 19 16 12 15 13 9 12 10 5 7 16
2 2 3 6 3 3 1 2 3 4 6 3 3 1 3 3 0 3 5 2 10 9 2 4 13 11 12 12 8 11 12 12 16 15 17 18 20 15 18 18 7 11 9 9 15
5 4 2 2 4 3 3 1 2 1 1 2 3 2 4 6 7 8 6 9 9 3 6 6 12 14 13 13 14 14 14 14 16 17 19 19 18 12 13 10 13 15 13 12 14
4 3 1 1 1 4 3 2 3 2 3 1 4 4 5 7 8 12 10 10 7 7 9 11 12 11 13 18 15 18 19 18 15 15 18 17 19 15 6 13 13 14 13 11 13
7 5 2 2 1 4 2 1 1 4 2 5 3 9 10 8 11 14 16 19 18 16 16 15 12 11 15 15 13 17 21 21 12 12 12 14 10 10 9 10 12 15 14 12 11
Wind_Direction
342 336 331 329 330 329 330 332 334 336 338 340 336 325 309 301 297 298 300 239 264 297 46 132 145 185 190 246 218 268 63 71 82 89 124 141 135 150 136 139 166 172 157 158 158
338 333 327 322 321 320 322 322 324 328 330 335 335 331 319 305 288 258 230 229 258 289 154 144 196 185 210 200 183 276 50 51 57 99 134 152 152 144 154 151 144 143 140 159 161
335 329 325 320 317 316 315 314 315 318 322 326 332 334 330 319 255 180 197 213 226 237 211 238 235 198 222 190 140 49 66 82 86 91 140 150 146 154 156 175 171 165 161 163 167
331 328 323 320 316 313 310 307 306 309 314 318 325 333 330 303 229 166 163 200 202 212 212 238 218 231 244 151 134 130 71 88 107 127 138 153 144 156 184 66 161 170 170 166 173
329 327 323 319 316 312 307 303 296 299 304 309 316 328 340 269 240 195 202 187 194 195 231 250 272 289 319 97 140 53 117 115 129 145 148 136 157 126 125 139 157 158 167 173 180
328 325 323 319 316 313 307 299 294 292 292 294 302 312 326 260 257 227 204 182 191 192 226 240 310 334 317 60 323 101 134 121 146 146 149 162 149 208 131 140 149 158 169 178 181
331 326 321 318 316 314 306 299 297 290 283 280 283 293 280 269 234 201 187 189 209 200 224 231 279 289 307 143 133 128 137 155 164 168 155 194 177 207 136 150 154 163 171 178 186
335 329 324 318 316 316 311 309 302 291 279 269 267 282 260 242 215 216 233 223 204 215 225 247 262 264 291 133 163 181 219 266 136 203 152 223 53 144 156 160 169 170 176 184 191
338 332 323 319 316 314 311 320 312 305 288 265 268 238 245 228 232 226 225 223 221 219 227 199 211 246 186 215 181 199 65 358 6 208 220 233 341 154 172 173 175 181 183 188 193
340 331 325 319 313 317 319 317 301 298 294 286 239 245 221 178 270 228 225 212 214 200 198 201 211 222 227 237 232 150 270 334 353 32 232 246 253 160 193 187 185 188 190 191 190
342 333 326 320 316 342 342 339 290 212 243 280 2 283 71 309 268 218 211 200 210 216 215 203 220 225 216 231 328 292 283 303 353 48 290 265 270 236 193 205 193 195 197 196 194
342 335 328 326 230 137 49 57 45 317 292 268 268 271 271 272 269 215 187 196 203 216 217 204 231 239 270 272 250 256 275 277 300 54 263 298 286 259 192 207 207 200 198 202 197
349 346 341 337 164 136 93 66 8 340 252 128 258 322 285 206 227 188 192 211 215 223 214 235 231 274 220 227 248 247 260 292 300 318 246 291 277 153 195 204 214 213 208 204 202
349 354 8 94 121 159 148 356 352 341 232 78 142 86 346 204 219 205 203 228 208 230 220 242 241 252 235 243 238 262 260 257 274 276 292 344 309 278 148 202 210 218 214 210 206
8 16 50 128 137 126 233 321 333 285 185 34 76 329 345 254 26 147 205 215 229 187 216 202 219 230 246 245 243 261 27 264 287 277 278 264 262 348 172 202 212 214 217 215 207
23 36 71 95 113 192 291 312 305 229 91 63 16 345 196 179 119 117 176 209 38 195 233 216 139 250 252 242 249 261 221 237 248 267 268 260 261 280 97 306 123 207 209 215 210
31 47 70 99 132 343 313 266 228 24 190 53 22 87 64 100 127 165 175 189 221 215 218 208 220 230 244 237 197 223 242 252 245 234 246 254 239 261 309 307 306 301 254 207 208
45 56 64 72 21 360 311 238 67 64 58 65 29 167 82 42 63 161 155 152 178 268 284 257 229 207 209 234 247 214 241 248 247 249 257 165 239 257 264 311 298 289 264 204 205
42 46 38 9 354 352 258 2 47 34 2 359 202 80 118 111 90 105 77 65 34 315 265 271 236 228 235 248 249 240 238 257 269 267 261 272 221 253 267 266 278 351 270 209 195
351 338 1 359 16 28 260 80 75 15 340 277 32 343 63 66 200 165 99 33 30 32 309 303 270 253 238 206 224 254 318 215 231 250 256 241 253 264 279 257 289 280 243 194 193
33 233 345 2 40 244 80 72 57 34 352 338 30 80 60 24 11 52 60 87 21 6 326 314 254 244 214 213 228 188 238 239 280 263 256 255 249 231 227 255 290 333 312 213 194
22 191 343 17 236 18 78 26 4 28 67 78 343 32 27 21 22 58 64 33 13 342 333 20 302 275 281 86 323 287 266 242 241 243 246 271 272 152 212 286 296 286 250 229 203
26 32 355 3 71 102 117 110 31 36 46 45 71 21 15 18 307 307 16 57 13 338 358 346 262 290 252 176 196 242 247 250 265 259 257 271 264 244 257 261 286 296 263 214 198
336 220 65 52 46 338 44 73 139 58 59 45 36 278 265 259 296 298 291 335 332 312 311 281 269 272 288 337 330 291 266 255 258 255 257 250 263 260 278 263 281 304 285 243 209
21 59 2 46 78 11 300 308 282 223 9 344 183 7 320 284 288 268 292 312 294 166 252 277 285 285 269 276 280 271 277 270 262 260 262 276 275 291 254 328 310 302 294 263 226
32 333 348 26 290 265 161 126 291 320 295 188 288 336 300 288 298 302 306 291 285 295 287 291 276 268 272 272 263 264 268 268 267 263 267 261 271 269 283 294 293 303 309 289 252
32 23 319 133 204 251 64 25 11 329 227 279 314 314 288 325 325 291 285 279 273 278 279 284 274 269 267 270 271 261 255 259 261 268 276 260 286 349 289 301 309 312 318 310 279